Theta_e
326 325 324 322 322 324 324 324 324 324 322 316 311 302 300 309 311 309 308 308 304 298 295 295 295 295 295 294 293 292 292 291 290 291 290 290 289 289 289 288 287 287 286
326 328 326 325 324 325 324 324 325 322 318 310 301 301 309 308 308 307 306 304 296 294 294 294 294 295 294 293 292 291 291 290 289 289 290 289 288 288 288 287 286 286 285
326 327 327 325 325 324 324 325 320 315 305 302 304 307 308 307 307 305 305 296 293 293 294 294 293 293 293 292 291 291 290 289 288 288 288 288 287 287 286 286 285 285 284
325 324 320 319 318 317 313 313 309 309 306 307 308 307 307 305 307 306 296 293 293 293 294 293 293 292 292 291 290 290 289 288 287 287 287 287 286 286 284 284 284 284 283
311 311 310 309 310 309 310 308 307 308 307 307 306 306 308 306 301 296 295 294 294 293 293 293 293 292 291 291 290 289 288 287 287 287 287 286 285 285 284 283 283 283 282
309 309 308 307 307 308 307 306 305 304 305 306 307 306 300 298 297 295 295 295 294 294 295 294 294 293 292 291 290 289 288 287 287 287 287 285 285 284 284 283 282 281 280
306 306 306 305 305 305 306 306 307 307 308 305 301 299 298 298 297 296 295 295 295 296 295 295 295 294 294 294 292 291 290 289 288 288 286 286 285 285 284 282 282 281 281
305 305 306 306 307 307 307 307 307 304 301 301 301 302 301 301 300 300 298 296 295 296 295 295 295 295 295 293 292 291 291 290 290 289 288 288 287 286 283 282 282 281 280
305 306 306 306 307 307 307 305 303 302 302 303 303 304 303 301 298 296 295 295 295 296 295 295 294 294 294 292 290 290 290 291 291 290 289 289 288 284 283 282 281 280 280
303 304 304 305 305 304 304 303 303 303 303 302 299 298 297 297 296 296 295 295 294 293 293 293 292 292 291 291 290 290 290 291 289 288 288 287 287 285 283 282 281 279 279
300 300 301 301 300 299 299 299 298 297 296 295 294 293 292 292 291 290 290 289 289 288 289 289 289 289 289 289 288 288 288 287 285 285 285 284 284 284 284 282 281 280 279
293 294 293 293 293 293 292 292 292 292 291 291 291 290 290 289 289 289 289 288 288 288 288 288 288 288 288 288 288 288 287 285 285 285 284 284 284 283 283 283 282 281 279
291 291 291 290 291 290 291 290 290 290 290 290 290 290 290 289 288 288 288 288 288 287 286 285 284 283 283 283 284 283 283 284 283 284 284 284 284 283 282 281 281 279 278
290 290 290 290 290 290 290 290 289 289 288 287 287 286 285 285 285 284 284 282 282 282 281 281 281 280 281 282 282 282 282 282 282 282 283 283 283 282 281 280 279 278 277
290 289 290 289 289 288 287 286 284 283 282 281 280 280 279 279 278 278 277 277 277 277 277 278 278 278 278 279 279 280 280 282 283 282 282 282 282 281 280 279 278 276 275
288 288 286 286 285 284 283 282 281 280 279 278 277 276 275 275 275 275 276 276 276 276 276 276 276 275 274 274 274 275 275 276 278 280 282 281 280 280 279 278 276 275 274
285 284 283 282 281 280 280 279 278 278 277 276 276 276 276 276 276 275 275 275 274 274 274 274 273 273 272 271 271 271 272 273 274 275 278 279 280 278 276 275 275 274 273
280 279 279 278 277 277 277 277 277 277 277 277 276 275 275 275 275 273 272 272 272 271 271 270 269 269 268 268 268 268 269 270 271 272 274 276 278 276 274 274 273 272 272
279 279 278 278 278 277 276 276 275 274 274 274 274 275 275 275 273 273 272 271 269 269 268 268 268 268 267 266 266 266 266 267 268 270 272 274 274 274 273 271 271 271 272
276 276 275 275 274 274 274 274 273 272 272 272 272 271 271 270 269 268 268 267 266 265 264 263 263 264 264 265 265 265 265 266 266 268 270 271 271 271 270 269 270 271 271
275 274 274 274 273 273 273 272 272 272 272 272 271 270 267 267 267 265 265 265 265 265 265 265 264 263 262 263 263 263 264 265 265 267 269 268 268 268 268 268 269 270 269
274 274 273 273 273 273 273 272 272 272 271 270 270 270 268 268 267 267 266 266 265 265 265 264 264 264 263 263 263 264 264 264 265 266 267 267 267 266 266 267 268 269 268
274 273 273 273 273 273 273 272 271 271 271 271 270 270 269 268 266 265 265 265 265 265 264 264 263 264 264 263 264 264 264 264 264 264 265 265 265 265 266 268 268 267 266
273 273 273 273 273 273 272 272 272 271 271 270 269 269 268 267 266 265 264 264 264 263 263 263 263 263 263 263 264 265 265 265 265 265 264 264 265 266 267 267 266 266 265
273 273 273 273 273 272 272 272 271 271 270 269 269 268 267 265 264 263 263 263 263 263 263 263 263 263 263 264 264 265 265 266 266 266 266 265 266 266 266 266 265 265 265
273 273 273 273 273 272 272 271 271 271 270 269 268 267 265 264 263 263 263 263 263 263 263 263 263 263 263 264 264 264 264 265 265 265 266 266 266 266 266 265 265 265 265
Wind_Speed
44 43 42 40 40 39 38 37 36 36 33 32 30 28 24 15 12 10 16 18 20 21 20 19 20 20 20 21 21 21 22 23 27 31 31 32 34 34 34 35 35 35 35
44 45 43 42 43 44 42 39 41 37 32 29 25 20 19 12 16 19 21 22 22 22 21 22 22 23 22 24 25 25 25 27 30 34 34 35 38 37 38 38 37 37 37
42 42 44 44 45 43 42 39 33 26 23 24 21 20 17 15 17 19 23 24 23 23 23 24 25 26 26 27 28 29 30 30 32 36 39 39 40 39 41 41 40 38 39
37 39 37 36 35 34 26 27 22 18 19 21 16 10 15 15 20 22 21 22 23 24 25 28 28 28 29 30 31 33 33 33 34 38 41 44 43 42 41 42 43 41 42
15 12 12 11 10 13 19 20 22 21 13 8 12 15 16 18 20 19 21 22 24 26 28 29 30 30 31 33 34 35 35 36 37 40 44 44 46 43 42 41 44 43 44
20 22 25 24 26 27 23 17 11 13 16 18 16 15 16 17 17 18 21 23 25 27 29 31 32 33 34 35 36 36 37 38 40 42 45 45 48 44 43 42 43 42 39
35 32 27 22 18 17 15 14 15 14 11 10 11 12 14 16 17 18 21 24 27 29 31 33 33 34 34 36 37 38 39 39 40 42 46 48 48 46 43 42 44 45 45
27 23 19 13 12 10 9 9 9 9 8 7 9 11 14 17 19 22 23 27 29 30 32 33 34 35 34 36 38 41 42 42 43 43 45 47 46 46 46 47 47 46 46
16 12 11 10 10 7 5 4 5 6 7 10 13 15 17 17 18 19 23 27 30 32 32 33 35 36 35 35 39 43 45 47 46 46 46 45 44 38 35 43 45 44 45
16 15 13 10 7 6 4 1 3 7 9 10 12 13 14 16 18 21 24 28 32 33 34 35 36 36 35 35 39 41 47 48 47 47 46 43 38 39 36 50 48 43 39
19 16 14 12 11 9 8 6 6 8 10 12 14 15 16 17 19 21 22 26 29 32 33 35 35 34 34 34 36 40 44 43 41 42 44 46 46 44 43 42 45 45 42
17 15 14 13 12 11 10 10 10 11 12 13 13 13 14 15 17 18 20 23 26 31 34 36 38 37 38 39 39 41 41 39 41 43 44 45 47 49 45 41 41 40 39
16 17 18 17 17 17 16 16 15 15 16 18 19 20 20 22 24 26 29 31 33 36 39 40 38 38 40 42 42 39 39 40 38 41 43 44 44 47 46 42 41 40 38
19 19 19 18 18 17 17 18 19 20 21 23 25 26 28 28 30 32 35 37 38 39 41 44 44 41 35 34 38 40 40 39 37 37 39 39 40 41 43 43 39 38 36
19 19 19 19 19 19 20 21 22 22 23 24 25 26 29 31 31 32 31 32 33 36 41 44 45 44 43 38 36 36 35 35 40 40 39 37 42 42 42 41 38 35 34
19 20 21 20 20 20 20 19 20 23 24 24 26 27 28 30 31 34 38 40 41 42 45 45 45 45 43 43 42 42 37 36 37 35 39 37 39 41 41 40 36 34 32
21 20 20 21 22 23 25 26 26 24 23 24 26 28 30 34 34 36 38 40 39 40 40 41 42 43 44 43 43 40 39 37 35 36 36 39 35 37 36 37 35 32 28
23 23 24 25 25 26 26 27 27 29 31 31 29 31 32 33 36 38 39 40 43 42 40 40 41 41 41 41 41 38 40 43 42 40 33 37 33 32 32 33 31 28 23
21 22 23 23 23 22 23 23 24 25 27 31 34 35 37 38 40 40 42 43 43 42 41 41 40 41 42 42 40 40 39 41 40 32 31 31 29 30 29 28 26 24 20
18 18 18 19 20 23 24 27 29 30 33 36 38 40 40 41 44 45 44 43 43 41 40 39 38 38 39 40 42 43 43 42 37 29 28 31 30 27 25 23 23 19 13
21 22 24 25 26 28 30 31 32 34 36 37 39 41 34 41 45 44 44 43 43 43 43 43 43 41 40 40 41 42 41 38 35 24 26 28 25 22 20 19 18 12 8
23 25 27 28 29 30 32 33 34 36 38 41 43 44 45 46 45 44 42 40 39 39 39 39 40 40 39 38 39 39 37 33 29 22 24 23 19 16 15 15 11 7 6
25 26 27 29 31 33 34 36 38 40 42 44 45 46 46 45 43 40 38 37 37 37 37 37 37 36 34 35 34 32 31 28 23 20 22 17 12 10 11 9 7 7 6
26 28 30 32 34 35 37 39 40 41 43 43 44 45 45 44 41 37 35 34 35 36 37 36 35 33 32 31 29 26 24 23 19 13 8 5 5 8 7 8 9 9 8
27 29 31 33 35 37 39 40 42 43 43 43 44 44 43 41 37 34 33 34 35 36 36 34 33 31 29 26 24 22 21 17 14 11 7 4 4 6 10 11 12 12 11
29 31 34 35 36 38 39 41 42 43 44 45 45 43 42 39 35 33 32 33 34 34 33 32 30 28 26 23 19 18 19 16 11 8 4 5 8 12 14 15 16 16 16
Wind_Direction
214 216 219 220 223 223 225 227 229 233 231 218 218 203 194 213 232 244 274 233 233 247 252 260 264 270 277 279 277 277 276 276 276 280 281 286 288 290 291 291 292 293 297
218 219 221 222 222 220 222 226 226 221 216 211 198 187 195 232 246 253 225 248 249 251 257 261 268 274 276 277 279 282 284 282 280 282 286 287 288 292 292 291 291 293 294
220 224 224 222 221 219 217 226 218 209 197 180 185 200 216 233 224 229 251 249 254 260 265 271 273 276 278 280 282 284 283 282 282 283 288 290 290 292 291 290 291 293 293
212 218 217 216 214 209 205 202 193 179 185 179 182 190 212 209 244 255 253 256 262 269 272 273 276 279 282 283 283 283 283 283 284 285 287 289 291 294 291 289 292 294 292
192 186 181 184 167 149 132 136 144 139 160 217 191 205 243 251 252 255 260 266 270 272 274 277 280 281 282 282 281 282 284 283 284 285 286 288 290 289 288 293 291 293 290
121 115 111 109 117 118 124 125 148 174 171 198 221 236 247 255 258 262 267 270 272 276 279 281 281 283 282 284 284 284 283 283 283 285 286 284 288 287 289 287 287 287 289
95 94 95 101 113 129 147 164 176 196 205 216 234 251 261 268 273 277 279 282 281 280 281 283 284 287 289 289 288 285 284 283 283 284 283 283 286 287 287 282 281 283 284
106 111 114 122 133 135 161 179 185 194 215 241 257 269 279 287 286 283 284 282 283 285 287 290 292 291 290 292 294 291 290 289 286 285 284 289 290 288 282 280 277 280 283
94 90 89 88 94 109 124 156 194 230 264 280 289 296 297 299 299 294 292 291 290 292 291 291 293 295 298 296 294 292 292 290 292 291 290 287 285 279 271 265 264 276 282
67 64 64 70 78 87 87 58 300 297 301 307 309 312 315 312 306 302 299 296 297 299 299 301 301 302 301 297 293 293 292 294 292 289 285 282 279 276 261 263 269 273 278
61 62 61 59 56 52 43 27 4 348 340 333 331 330 325 317 315 314 312 311 312 311 311 310 309 309 305 301 296 290 289 292 289 286 284 284 284 282 277 271 270 272 274
59 59 58 53 46 37 26 16 6 357 351 347 347 349 346 339 333 325 318 314 312 311 311 308 305 302 298 295 294 294 294 289 282 281 280 279 280 279 281 282 277 274 271
52 52 52 47 44 39 33 29 22 14 6 359 352 346 340 337 333 326 321 317 314 313 311 311 312 307 307 303 301 301 302 296 291 281 278 276 276 278 276 273 273 269 264
52 50 49 46 42 36 28 22 13 6 0 354 348 343 337 332 328 324 324 322 319 316 314 312 313 311 305 301 306 311 309 305 296 285 280 280 279 274 272 271 269 270 261
50 47 40 34 30 25 19 17 15 9 4 358 352 347 343 342 340 338 336 333 328 324 321 321 320 319 318 314 310 306 301 303 297 294 290 281 278 280 274 271 268 264 256
40 36 31 25 21 18 16 17 17 13 8 5 2 1 357 352 347 342 338 333 331 329 328 325 323 321 319 317 314 310 307 301 292 298 283 279 277 279 275 267 263 259 253
33 30 25 22 18 16 12 9 8 15 17 9 359 356 354 350 346 341 340 339 337 333 332 328 325 323 321 320 317 315 313 310 305 295 299 276 282 281 274 270 264 254 247
31 29 27 25 24 22 18 14 9 6 5 5 7 2 0 355 353 350 346 342 343 344 340 334 331 327 324 321 318 316 307 306 307 302 299 281 279 281 277 270 261 245 244
25 24 22 18 16 16 17 18 17 16 10 6 1 358 355 353 351 346 345 346 345 342 339 335 332 328 325 322 319 316 313 310 314 305 302 285 292 287 277 265 249 238 244
39 38 38 36 33 30 24 19 15 10 5 2 358 353 352 348 348 350 350 348 347 343 340 336 332 327 327 325 324 322 319 318 313 306 299 297 296 285 271 256 234 237 244
42 38 35 31 25 21 17 13 7 3 360 357 354 354 350 344 350 349 348 347 345 342 339 337 334 331 328 326 327 324 321 318 316 312 298 300 293 280 263 239 227 226 234
36 32 27 22 18 13 10 6 1 358 356 355 353 352 350 348 345 342 341 341 340 339 339 337 335 333 332 332 329 326 324 321 320 317 297 302 291 266 245 218 210 209 209
27 22 18 14 10 6 3 360 358 356 354 351 349 347 345 343 342 342 340 340 339 340 341 341 338 335 336 336 332 332 328 324 318 307 302 297 274 236 202 193 184 173 144
18 13 10 7 3 360 357 355 353 351 349 347 345 343 342 341 340 340 340 339 340 342 345 343 343 343 339 338 338 339 342 343 345 341 323 295 192 178 170 160 146 128 126
11 9 6 3 1 358 356 354 352 350 346 343 341 341 340 340 340 340 340 340 341 342 343 346 346 345 343 341 343 348 350 353 4 19 41 105 156 141 138 130 122 117 107
9 7 4 1 358 355 353 351 348 346 344 342 340 339 340 341 340 338 337 337 338 339 342 345 346 347 345 345 349 0 4 13 16 26 51 101 119 123 122 119 114 105 93